This is the latest recevied weather packets stored in our database for station/object ON7AMI-5. If no packets are shown the sender has not sent any weather packets the latest 1 day(s).
| Time | Temp. | Humidity | Pressure | Rain* | Wind** | Luminosity | Snow |
|---|---|---|---|---|---|---|---|
| 1778005535 | 13.33° C | 92% | 1010.3 hPa | 0 mm | 6.26 m/s, 29° | - | - |
| 1778005235 | 13.33° C | 92% | 1010.4 hPa | 0 mm | 5.81 m/s, 22° | - | - |
| 1778004935 | 13.33° C | 92% | 1010.4 hPa | 0 mm | 4.02 m/s, 22° | - | - |
| 1778004636 | 13.33° C | 92% | 1010.4 hPa | 0 mm | 4.47 m/s, 5° | - | - |
| 1778004336 | 13.33° C | 92% | 1010.4 hPa | 0 mm | 5.81 m/s, 20° | - | - |
| 1778004035 | 13.33° C | 92% | 1010.4 hPa | 0 mm | 5.36 m/s, 20° | - | - |
| 1778003735 | 13.89° C | 92% | 1010.4 hPa | 0 mm | 8.05 m/s, 22° | - | - |
| 1778003435 | 13.89° C | 92% | 1010.4 hPa | 0 mm | 6.71 m/s, 24° | - | - |
| 1778003135 | 13.89° C | 92% | 1010.3 hPa | 0 mm | 6.26 m/s, 1° | - | - |
| 1778002835 | 13.89° C | 92% | 1010.2 hPa | 0 mm | 5.81 m/s, 9° | - | - |
| 1778002535 | 13.89° C | 92% | 1010.2 hPa | 0 mm | 4.92 m/s, 18° | - | - |
| 1778002229 | 13.89° C | 92% | 1010.2 hPa | 0 mm | 4.47 m/s, 25° | - | - |
| 1778001935 | 14.44° C | 93% | 1010.2 hPa | 0 mm | 4.02 m/s, 24° | - | - |
| 1778001635 | 14.44° C | 93% | 1010.1 hPa | 0 mm | 4.47 m/s, 25° | - | - |
| 1778001335 | 14.44° C | 93% | 1010 hPa | 0 mm | 6.26 m/s, 7° | - | - |
| 1778001036 | 15° C | 93% | 1009.9 hPa | 0 mm | 0.45 m/s, 65° | - | - |
| 1778000735 | 15° C | 93% | 1009.9 hPa | 0 mm | 4.47 m/s, 37° | - | - |
| 1778000436 | 15° C | 93% | 1009.9 hPa | 0 mm | 0 m/s | - | - |
| 1778000135 | 15.56° C | 93% | 1009.9 hPa | 0 mm | 1.34 m/s, 22° | - | - |
| 1777999835 | 15.56° C | 93% | 1010 hPa | 0 mm | 3.58 m/s, 35° | - | - |
| 1777999535 | 15.56° C | 93% | 1010 hPa | 0 mm | 2.68 m/s, 27° | - | - |
| 1777999235 | 15.56° C | 93% | 1010 hPa | 0 mm | 1.79 m/s, 41° | - | - |
| 1777998936 | 15.56° C | 93% | 1010 hPa | 0 mm | 2.68 m/s, 55° | - | - |
| 1777998635 | 15.56° C | 93% | 1009.9 hPa | 0 mm | 2.24 m/s, 32° | - | - |
| 1777998335 | 15.56° C | 93% | 1010 hPa | 0 mm | 5.36 m/s, 21° | - | - |
* Rain latest hour (hover to see other rain measurements)
** Current wind speed in m/s (hover to see current wind gust speed)